Denton, TX

12:32 AM CDT on May 24, 2018 (GMT -0500)
Denton Municipal

Weather History for KDTO - December, 2013

Change the Weather History Date:

Saturday, December 7, 2013

  Actual Average Record
Temperature  
Mean Temperature 20 °F -  
Max Temperature 24 °F 56 °F 82 °F (2007)
Min Temperature 15 °F 35 °F 15 °F (2013)
Degree Days  
Heating Degree Days 46    
Moisture  
Dew Point 13 °F    
Average Humidity 73    
Maximum Humidity 81    
Minimum Humidity 65    
Precipitation  
Precipitation 0.00 in - - ()
Sea Level Pressure  
Sea Level Pressure 30.46 in    
Wind  
Wind Speed 10 mph (North)    
Max Wind Speed 16 mph    
Max Gust Speed -    
Visibility 10 miles    
Events      
Averages and records for this station are not official NWS values.
T = Trace of Precipitation, MM = Missing Value Source: NWS Daily Summary

Daily Weather History Graph

Daily Weather History Graph

Search for Another Location

Airport or City:

Astronomy

Dec. 07, 2013 Rise Set
Actual Time 7:19 AM CST 5:21 PM CST
Civil Twilight 6:52 AM CST 5:48 PM CST
Nautical Twilight 6:21 AM CST 6:19 PM CST
Astronomical Twilight 5:51 AM CST 6:49 PM CST
Moon 11:15 AM CST (12/7) 10:52 PM CST (12/7)
Length of Visible Light 10h 56m
Length of Day
10h 02m
Waxing Crescent, 29% of the Moon is Illuminated
Dec 7
Waxing Crescent
Dec 9
First Quarter
Dec 17
Full
Dec 25
Last Quarter
Jan 1
New

Hourly Weather History & Observations

Time (CST) Temp. Windchill Dew Point Humidity Pressure Visibility Wind Dir Wind Speed Gust Speed Precip Events Conditions
12:53 AM 19.9 °F 7.9 °F 12.0 °F 71% 30.56 in 10.0 mi North 11.5 mph - N/A   Clear
1:53 AM 19.0 °F 5.6 °F 10.9 °F 71% 30.54 in 10.0 mi North 13.8 mph - N/A   Clear
2:53 AM 19.0 °F 5.6 °F 9.0 °F 65% 30.54 in 10.0 mi North 13.8 mph - N/A   Clear
3:53 AM 18.0 °F 5.4 °F 9.0 °F 68% 30.55 in 10.0 mi North 11.5 mph - N/A   Clear
4:53 AM 17.1 °F 3.6 °F 8.1 °F 68% 30.54 in 10.0 mi North 12.7 mph - N/A   Clear
5:53 AM 16.0 °F 2.9 °F 8.1 °F 71% 30.55 in 10.0 mi North 11.5 mph - N/A   Clear
6:53 AM 16.0 °F 3.6 °F 8.1 °F 71% 30.57 in 10.0 mi North 10.4 mph - N/A   Clear
7:15 AM 15.8 °F 3.4 °F 8.6 °F 73% 30.55 in 10.0 mi North 10.4 mph - N/A   Mostly Cloudy
7:53 AM 16.0 °F 3.6 °F 8.1 °F 71% 30.58 in 10.0 mi North 10.4 mph - N/A   Overcast
8:53 AM 17.1 °F 2.0 °F 9.0 °F 71% 30.57 in 10.0 mi North 16.1 mph - N/A   Overcast
9:53 AM 18.0 °F 5.4 °F 10.0 °F 71% 30.58 in 10.0 mi North 11.5 mph - N/A   Overcast
10:53 AM 19.0 °F 7.5 °F 12.0 °F 74% 30.56 in 10.0 mi North 10.4 mph - N/A   Overcast
11:53 AM 21.0 °F 12.4 °F 14.0 °F 74% 30.53 in 10.0 mi North 6.9 mph - N/A   Overcast
12:53 PM 21.9 °F 12.5 °F 15.1 °F 75% 30.50 in 10.0 mi North 8.1 mph - N/A   Overcast
1:38 PM 21.2 °F 8.9 °F 15.8 °F 80% 30.42 in 10.0 mi NNW 12.7 mph - N/A   Overcast
1:53 PM 21.9 °F 10.4 °F 15.1 °F 75% 30.45 in 10.0 mi NNW 11.5 mph - N/A   Overcast
2:53 PM 23.0 °F 11.7 °F 15.1 °F 72% 30.41 in 10.0 mi North 11.5 mph - N/A   Overcast
3:23 PM 23.0 °F 11.7 °F 15.8 °F 74% 30.38 in 10.0 mi North 11.5 mph - N/A   Overcast
3:53 PM 23.0 °F 13.1 °F 15.1 °F 72% 30.39 in 10.0 mi North 9.2 mph - N/A   Overcast
4:53 PM 24.1 °F 16.0 °F 16.0 °F 71% 30.39 in 10.0 mi North 6.9 mph - N/A   Overcast
5:53 PM 24.1 °F 13.7 °F 16.0 °F 71% 30.38 in 10.0 mi North 10.4 mph - N/A   Overcast
6:53 PM 24.1 °F 16.0 °F 17.1 °F 75% 30.38 in 10.0 mi North 6.9 mph - N/A   Overcast
7:53 PM 24.1 °F 17.0 °F 17.1 °F 75% 30.36 in 10.0 mi NNE 5.8 mph - N/A   Overcast
8:53 PM 24.1 °F 19.7 °F 18.0 °F 77% 30.36 in 10.0 mi North 3.5 mph - N/A   Overcast
9:53 PM 24.1 °F 19.7 °F 18.0 °F 77% 30.35 in 10.0 mi NNW 3.5 mph - N/A   Overcast
10:42 PM 24.8 °F 20.5 °F 19.4 °F 80% 30.32 in 10.0 mi NW 3.5 mph - N/A   Overcast
10:53 PM 24.1 °F - 18.0 °F 77% 30.34 in 10.0 mi Calm Calm - N/A   Overcast
11:53 PM 24.1 °F - 19.0 °F 81% 30.30 in 10.0 mi Calm Calm - N/A   Overcast